Regional Weather Roundup
Issued by NWS

Home | Current Version | Previous Version | Text Only | Print | Product List | Glossary Off
Versions: 1 2 3 4 5 6 7 8 9 10 11 12 13 14 15 16 17 18 19 20 21 22 23 24 25 26 27 28 29 30 31 32 33 34 35 36 37 38 39 40 41 42 43 44 45 46 47 48 49 50

000
ASUS43 KMPX 220210
RWRMN
WEATHER ROUNDUP FOR MINNESOTA
NATIONAL WEATHER SERVICE TWIN CITIES/CHANHASSEN MN
800 PM CST SAT JAN 21 2017


NOTE: "FAIR" INDICATES FEW OR NO CLOUDS BELOW 12,000 FEET WITH NO
SIGNIFICANT WEATHER AND/OR OBSTRUCTIONS TO VISIBILITY. N/A MEANS
CURRENT SKY AND/OR WEATHER CONDITIONS ARE NOT AVAILABLE.

MNZ060>063-068>070-220300-
   Twin Cities Metro

CITY           SKY/WX    TMP DP  RH WIND       PRES   REMARKS
TWIN CITIES    CLOUDY    37  36  96 CALM      29.50R FOG
ST PAUL        FOG       35  35 100 CALM      29.52R VSB 1/4
CRYSTAL        FOG       35  33  92 CALM      29.48R VSB 1/4
BLAINE         FOG       37  37 100 CALM      29.49R VSB 1/4
LAKEVILLE      FOG       34  34 100 CALM      29.50R VSB 1/4
EDEN PRAIRIE   FOG       36  35  96 CALM      29.49R VSB 1/4
SOUTH ST PAUL  FOG       36  35  99 CALM      29.50R VSB 1/2
LAKE ELMO      FOG       34  34 100 CALM      29.50R VSB 1/4
$$
MNZ001>005-007-008-013>017-022>024-027-028-220300-
   Northwest Minnesota

CITY           SKY/WX    TMP DP  RH WIND       PRES   REMARKS
BEMIDJI        CLOUDY    33  33  99 CALM      29.53R FOG
HALLOCK        LGT RAIN  36  34  93 CALM      29.54R
ROSEAU         HAZE      36  30  80 E8        29.55R VSB 3/4
WARROAD        CLOUDY    34  30  86 NE3       29.56R
THIEF RVR FALL CLOUDY    34  33  96 E6        29.54R WCI  29
CROOKSTON      MIX PCPN  36  34  93 E3        29.54R
FOSSTON        CLOUDY    32  30  93 E3        29.53R FOG
DETROIT LAKES  DRIZZLE   36  34  93 CALM      29.52S
MOORHEAD       CLOUDY    34  34 100 CALM      29.53R
PARK RAPIDS    FOG       35  32  88 NE5       29.51R VSB 1/2 WCI  31
MAHNOMEN       CLOUDY    34  33  96 CALM      29.52R
$$
MNZ006-009>011-018-025>026-220300-
   North Central Minnesota

CITY           SKY/WX    TMP DP  RH WIND       PRES   REMARKS
BAUDETTE       CLOUDY    34  33  96 E3        29.54R
FLAG ISLAND    CLOUDY    36  34  93 E3        29.55R
INTL FALLS     FOG       35  33  92 NE3       29.54R VSB 3/4
WASKISH        CLOUDY    36  34  93 CALM      29.54R
BIG FORK       DRZL/FOG  36  34  93 CALM      29.53R VSB 1/2
LONGVILLE      FOG       36  34  93 CALM      29.51S VSB 3/4
GRAND RAPIDS   FOG       35  34  96 CALM      29.53S VSB 1/2
CRANE LAKE     CLOUDY    34  34 100 CALM      29.56R FOG
ORR            CLOUDY    34  32  93 CALM      29.51R FOG
COOK           CLOUDY    34  34 100 CALM      29.54R
WALKER         FOG       33  33  99 CALM      29.52R VSB 1/4
$$
MNZ012-019>021-037-220300-
   Northeast Minnesota

CITY           SKY/WX    TMP DP  RH WIND       PRES   REMARKS
DULUTH         DRZL/FOG  35  35 100 NE6       29.50S VSB 1/4 WCI  30
ELY            CLOUDY    34  34 100 CALM      29.52R
HIBBING        CLOUDY    34  34 100 NE3       29.52S FOG
EVELETH        CLOUDY    37  37  98 CALM      29.53R
DULUTH HARBOR  CLOUDY    34  34 100 NE8       29.53S FOG     WCI  27
TWO HARBORS    CLOUDY    37  34  87 NE5       29.50S HAZE
SILVER BAY     CLOUDY    36  36 100 NE8       29.50S FOG
GRAND MARAIS     N/A     37  35  92 NE8       29.54R
G MARAIS ARPRT CLOUDY    32  28  86 NE9       29.52R WCI  24
$$
MNZ029>031-032-039>041-046>048-054>057-064-220300-
   West Central Minnesota

CITY           SKY/WX    TMP DP  RH WIND       PRES   REMARKS
FERGUS FALLS   CLOUDY    34  34 100 CALM      29.55R FOG
WHEATON        FOG       41  41 100 CALM      29.53S VSB 1/4
MORRIS         CLOUDY    34  34 100 NE5       29.49S FOG     WCI  30
ALEXANDRIA     FOG       34  34 100 NE5       29.50R VSB 1/4 WCI  30
ELBOW LAKE     LGT SNOW  33  33 100 CALM      29.51R VSB 3/4
WADENA         DRZL/FOG  34  34 100 CALM      29.50S VSB 1/4
GLENWOOD       SNOW      34  34 100 CALM      29.50R VSB 1/4
APPLETON       FOG       34  34 100 CALM      29.51R VSB 1/2
BENSON         CLOUDY    36  32  87 CALM      29.52R
ORTONVILLE     FOG       34  32  93 CALM      29.51R VSB 1/4
MADISON        FOG       36  36 100 NW3       29.50R VSB 1/2
WILLMAR        FOG       34  34 100 CALM      29.50S VSB 1
$$
MNZ033>034-036-042>043-049>051-058-059-220300-
   Central Minnesota

CITY           SKY/WX    TMP DP  RH WIND       PRES   REMARKS
ST CLOUD       FOG       34  34 100 CALM      29.49R VSB 1/4
SAUK CENTRE    FOG       33  33 100 CALM      29.50R VSB 1/4
PAYNESVILLE    FOG       33  33 100 CALM      29.50R VSB 1/4
AITKIN         CLOUDY    37  34  87 CALM      29.50R
PINE RIVER     FOG       34  34 100 CALM      29.55S VSB 1/2
BRAINERD       FOG       34  34 100 N6        29.51R VSB 3/4 WCI  29
STAPLES        FOG       34  34 100 CALM      29.50S VSB 3/4
LONG PRAIRIE   SNOW      32  32 100 CALM      29.50R VSB 1/4
LITTLE FALLS   FOG       34  32  93 CALM      29.50S VSB 3/4
LITCHFIELD     FOG       36  36 100 CALM      29.50R VSB 1/2
BUFFALO        FOG       35  34  96 CALM      29.50S VSB 1/2
MAPLE LAKE     FOG       35  35 100 CALM      29.50S VSB 1/4
HUTCHINSON     DRZL/FOG  35  35 100 CALM      29.51R VSB 1/2
$$
MNZ037-044-045-052-053-220300-
   East Central Minnesota

CITY           SKY/WX    TMP DP  RH WIND       PRES   REMARKS
PRINCETON      FOG       36  36 100 N3        29.50R VSB 1/4
MORA           CLOUDY    34  32  93 CALM      29.52R FOG
CAMBRIDGE      FOG       37  37 100 CALM      29.48R VSB 1/2
RUSH CITY      FOG       36  34  93 CALM      29.50R VSB 3/4
MOOSE LAKE     CLOUDY    34  32  93 NE6       29.49R FOG     WCI  29
HINCKLEY       CLOUDY    34  34 100 NE6       29.49R WCI  29
CLOQUET        CLOUDY    34  34 100 CALM      29.50S FOG
MCGREGOR       CLOUDY    34  34 100 CALM      29.51S
$$
MNZ071>073-080-081-089-090-097-098-220300-
   Southwest Minnesota

CITY           SKY/WX    TMP DP  RH WIND       PRES   REMARKS
MONTEVIDEO     FOG       34  34 100 CALM      29.52R VSB 1/2
GRANITE FALLS  FOG       35  35 100 CALM      29.51R VSB 1/4
CANBY          FOG       35  35 100 CALM      29.51R VSB 3/4
MARSHALL       CLOUDY    34  33  96 NW8       29.50R WCI  27
REDWOOD FALLS  FOG       35  34  96 CALM      29.49R VSB 1/4
OLIVIA         FOG       34  34 100 CALM      29.49R VSB 1/2
PIPESTONE      CLOUDY    32  32 100 NW8       29.49R FOG     WCI  25
WINDOM         CLOUDY    32  32 100 W10       29.49R FOG     WCI  24
WORTHINGTON    CLOUDY    31  30  96 W12       29.50R WCI  22
JACKSON        CLOUDY    30  30 100 W9        29.50R FOG     WCI  22
TRACY          CLOUDY    35  34  97 W7        29.49R WCI  29
SLAYTON        CLOUDY    31  31 100 W9        29.49R FOG     WCI  23
$$
MNZ065>067-074>077-082>085-091>093-220300-
   South Central Minnesota

CITY           SKY/WX    TMP DP  RH WIND       PRES   REMARKS
MANKATO        FOG       36  34  93 NE3       29.50R VSB 1/4
NEW ULM        FOG       36  36 100 CALM      29.49R VSB 1/2
ST JAMES       CLOUDY    34  34 100 SW9       29.51R FOG     WCI  26
FAIRMONT       CLOUDY    34  32  92 W8        29.50R WCI  27
GLENCOE        FOG       36  36 100 CALM      29.49R VSB 3/4
OWATONNA       FOG       36  34  93 CALM      29.49R VSB 1
WASECA         FOG       34  34 100 CALM      29.50R VSB 1/2
ALBERT LEA     CLOUDY    36  36 100 SW8       29.49R FOG
$$
MNZ078>079-086>088-094>096-220300-
   Southeast Minnesota

CITY           SKY/WX    TMP DP  RH WIND       PRES   REMARKS
ROCHESTER      FOG       34  34 100 S7        29.49S VSB 3/4 WCI  28
RED WING       FOG       36  34  93 CALM      29.50R VSB 1/2
STANTON        FOG       35  33  94 CALM      29.49R VSB 1/4
DODGE CENTER   CLOUDY    34  34 100 CALM      29.48S FOG
WINONA         CLOUDY    36  36 100 CALM      29.51S FOG
AUSTIN         FOG       36  36 100 S3        29.49S VSB 3/4
PRESTON        FOG       35  34  97 SW3       29.50S VSB 1/2
$$
ABBREVIATIONS USED IN REMARKS
   TC - TEMPERATURES IN CELSIUS
  WCI - WIND CHILL INDEX
   HX - HEAT INDEX
  VSB - VISIBILITY
$$




USA.gov is the U.S. government's official web portal to all federal, state and local government web resources and services.